DELTA 1 DEB, 29190

Orbit data source: Space-Track

DELTA 1 DEB, 29190 is space debris in LEO originally from a launch on Thu, 11 Jan 1968 UTC launched from the Air Force Western Test Range (AFWTR). Debris objects in space refer to the collection of defunct objects orbiting the Earth. Examples of debris include non-operational satellites, rocket bodies, and fragments generated from explosions, collisions, or faulty payload assembly.

Loading next visibility...
Identifier
29190, 1968-002P
Orbit
LEO
Country
Flag of USUS
Related business
Manufacturer
Unknown
Mission
Spacecraft
Bus & Motor
Unknown
Mass
Unknown
Launch date (UTC)
1968-01-11 (58 years ago)
Launch vehicle
Unknown
Launch site
Air Force Western Test Range (AFWTR)
Object type
Payload
Rocket body
Debris
Shape & HBR
Unknown shape, 0.1 m
Radar Cross Section
Small (<0.1 m²)

Expand to show TLE details & history
Last TLE update: 3 weeks ago

TLE from 3 weeks ago
0 DELTA 1 DEB
1 29190U 68002P   26142.44787874  .00001486  00000-0  30213-2 0  9991
2 29190 105.8460  50.1826 0276358  84.9645 278.2929 13.23469970224715
Epoch: 2026-05-22T10:44Z
TLE epoch observation values (Epoch: 2026-05-22T10:44:56.723Z)
Latitude
-0.00001°
Longitude
8.86767°
Altitude
1,149.557 km
Speed
7.29 km/s
True Right ascension
03h 20m 43s
True Declination
0° 00' 00"
Sunlit
Object was in daylight at epoch
Visualization orbit readout
Latitude
Unknown
Longitude
Unknown
Altitude
Unknown
Speed
Unknown
Apparent Right ascension
Unknown
Apparent Declination
Unknown
Sunlit
N/A
Visualization observer readout
Local Sidereal Time
13:20:19
Azimuth
Unknown
Elevation
Unknown
Doppler factor
Unknown
Orbital elements
Apogee altitude
1,377.811 km
Perigee altitude
960.656 km
Semi-major axis
7,547.37 km
Eccentricity
0.02764
Inclination
105.846°
RAAN
50.1826°
Arg. of periapsis
84.9645°
True anomaly
275.14508°
Mean anomaly
278.2929°
Eccentric anomaly
276.72036°
Mean motion
3.31017 °/min
Orbital period
108.76 mins
BSTAR
0.0030213
Loading maneuver chart data...
Computing Atmospheric mass density...
Loading historical data...
Loading historical data...
Loading historical data...
Loading historical data...
Loading historical data...
Loading historical data...
Loading historical data...

Documentation

Showing up to 5 results
|